DW2070 Weather Reports


Display with metric or nautical units.
time (UTC)temp
F
wind
direction
speed
MPH
gust
MPH
rain 1hr
in
rain 24hr
in
rain mn
in
humidity
%
barometer
mb
20260831044004 69 249 0.0 2.0 0.00 0.00 0.00 78 1012.5
20260831043025 69 249 1.0 2.0 0.00 0.00 0.00 78 1012.4
20260831042004 69 249 1.0 4.0 0.00 0.00 0.00 77 1012.3
20260831040004 70 238 2.0 4.0 0.00 0.00 0.00 76 1012.1
20260831035004 70 242 1.0 4.0 0.00 0.00 0.00 76 1012.1
20260831034004 70 243 1.0 3.0 0.00 0.00 0.00 74 1011.9
20260831033004 71 245 2.0 3.0 0.00 0.00 0.00 74 1011.7
20260831032004 71 244 1.0 4.0 0.00 0.00 0.00 73 1011.5
20260831031004 72 243 2.0 5.0 0.00 0.00 0.00 72 1011.4
20260831030025 72 246 2.0 5.0 0.00 0.00 0.00 71 1011.3
20260831025004 72 262 2.0 5.0 0.00 0.00 0.00 70 1011.1
20260831024004 73 245 2.0 8.0 0.00 0.00 0.00 69 1011.1
20260831023025 74 244 2.0 6.0 0.00 0.00 0.00 67 1011.1
20260831022004 74 249 3.0 7.0 0.00 0.00 0.00 66 1011.2
20260831020025 76 269 2.0 8.0 0.00 0.00 0.00 64 1011.1
20260831015004 76 256 3.0 7.0 0.00 0.00 0.00 62 1011.1
20260831014004 77 254 3.0 7.0 0.00 0.00 0.00 61 1011.2
20260831013025 78 272 4.0 8.0 0.00 0.00 0.00 60 1011.2
20260831011025 79 242 4.0 11.0 0.00 0.00 0.00 57 1011.2
20260831010004 81 251 3.0 9.0 0.00 0.00 0.00 55 1011.3
20260831005025 81 261 4.0 9.0 0.00 0.00 0.00 56 1011.2
20260831004004 81 274 5.0 11.0 0.00 0.00 0.00 54 1011.2
20260831003004 82 252 6.0 12.0 0.00 0.00 0.00 54 1011.3
20260831001004 83 237 4.0 9.0 0.00 0.00 0.00 54 1011.1
20260831000004 82 259 6.0 10.0 0.00 0.00 0.00 57 1011.2
20260830235004 82 253 5.0 12.0 0.00 0.00 0.00 56 1011.1
20260830233004 84 266 5.0 13.0 0.00 0.00 0.00 55 1011.1
20260830232004 83 245 4.0 12.0 0.00 0.00 0.00 55 1011.2
20260830225004 86 270 5.0 11.0 0.00 0.00 0.00 53 1011.1
20260830224004 87 260 4.0 10.0 0.00 0.00 0.00 52 1011.1
20260830223004 86 261 4.0 10.0 0.00 0.00 0.00 53 1011.3
20260830222025 86 257 4.0 10.0 0.00 0.00 0.00 54 1011.6
20260830221025 86 254 4.0 10.0 0.00 0.00 0.00 53 1011.8
20260830220004 86 256 4.0 10.0 0.00 0.00 0.00 54 1011.8
20260830215025 86 256 4.0 9.0 0.00 0.00 0.00 53 1011.9
20260830214004 85 265 4.0 9.0 0.00 0.00 0.00 55 1012.1
20260830213004 84 271 5.0 10.0 0.00 0.00 0.00 56 1012.2
20260830212004 83 263 5.0 11.0 0.00 0.00 0.00 57 1012.4
20260830211004 82 252 5.0 11.0 0.00 0.00 0.00 59 1012.5
20260830210004 83 265 5.0 11.0 0.00 0.00 0.00 58 1012.7
20260830205004 83 286 5.0 12.0 0.00 0.00 0.00 58 1012.7
20260830204004 84 260 4.0 11.0 0.00 0.00 0.00 57 1012.7
20260830203025 83 271 5.0 10.0 0.00 0.00 0.00 60 1012.8
20260830202004 82 263 5.0 12.0 0.00 0.00 0.00 60 1012.8
20260830200025 84 261 5.0 12.0 0.00 0.00 0.00 59 1012.8
20260830195004 83 250 6.0 11.0 0.00 0.00 0.00 60 1012.8
20260830194004 84 265 5.0 11.0 0.00 0.00 0.00 58 1012.7
20260830193004 84 262 5.0 10.0 0.00 0.00 0.00 58 1012.8
20260830192004 85 247 4.0 9.0 0.00 0.00 0.00 57 1012.9
20260830191025 84 261 5.0 10.0 0.00 0.00 0.00 58 1012.9
20260830190004 84 280 4.0 13.0 0.00 0.00 0.00 57 1013.0
20260830185025 84 273 5.0 12.0 0.00 0.00 0.00 59 1013.1
20260830184025 84 252 4.0 11.0 0.00 0.00 0.00 58 1013.2
20260830183003 84 264 4.0 10.0 0.00 0.00 0.00 57 1013.1
20260830182004 83 262 4.0 11.0 0.00 0.00 0.00 60 1013.2
20260830181003 83 266 3.0 10.0 0.00 0.00 0.00 60 1013.0
20260830180004 81 278 3.0 8.0 0.00 0.00 0.00 63 1013.0
20260830175003 80 258 3.0 7.0 0.00 0.00 0.00 64 1012.9
20260830174025 80 278 3.0 8.0 0.00 0.00 0.00 65 1013.0
20260830173003 79 268 3.0 7.0 0.00 0.00 0.00 67 1012.9
20260830172025 79 270 3.0 6.0 0.00 0.00 0.00 69 1013.0
20260830171025 77 239 2.0 5.0 0.00 0.00 0.00 70 1013.0
20260830170004 77 242 3.0 6.0 0.00 0.00 0.00 71 1012.8
20260830165003 76 263 3.0 5.0 0.00 0.00 0.00 72 1012.8
20260830163003 76 218 2.0 5.0 0.00 0.00 0.00 70 1012.7
20260830162024 76 196 2.0 5.0 0.00 0.00 0.00 70 1012.7
20260830161004 77 178 2.0 6.0 0.00 0.00 0.00 70 1012.7
20260830160003 77 131 1.0 4.0 0.00 0.00 0.00 71 1012.7
20260830155004 74 101 1.0 3.0 0.00 0.00 0.00 77 1012.8
20260830154004 71 101 0.0 3.0 0.00 0.00 0.00 85 1012.7
20260830153024 69 110 1.0 3.0 0.00 0.00 0.00 86 1012.8
20260830152003 68 110 2.0 3.0 0.00 0.00 0.00 86 1012.8
20260830151003 68 104 2.0 6.0 0.00 0.00 0.00 86 1012.7
20260830150003 67 77 2.0 6.0 0.00 0.00 0.00 87 1012.5
20260830145003 67 99 2.0 6.0 0.00 0.00 0.00 87 1012.5
20260830144024 66 154 2.0 4.0 0.00 0.00 0.00 87 1012.7
20260830143003 66 173 1.0 4.0 0.00 0.00 0.00 88 1012.7
20260830142024 65 231 1.0 3.0 0.00 0.00 0.00 88 1012.6
20260830141003 65 230 1.0 3.0 0.00 0.00 0.00 88 1012.5
20260830140024 64 230 1.0 5.0 0.00 0.00 0.00 88 1012.3
20260830135024 64 231 1.0 3.0 0.00 0.00 0.00 88 1012.5
20260830134003 64 232 1.0 3.0 0.00 0.00 0.00 88 1012.2
20260830133024 64 232 1.0 3.0 0.00 0.00 0.00 88 1012.1
20260830132003 64 233 1.0 3.0 0.00 0.00 0.00 87 1011.9
20260830131003 64 233 2.0 4.0 0.00 0.00 0.00 87 1011.9
20260830130003 64 233 1.0 3.0 0.00 0.00 0.00 86 1011.9
20260830125003 64 0 0.0 3.0 0.00 0.00 0.00 86 1012.0
20260830124003 64 0 0.0 0.0 0.00 0.00 0.00 85 1011.9
20260830123003 64 0 0.0 0.0 0.00 0.00 0.00 85 1011.9
20260830121003 65 0 0.0 0.0 0.00 0.00 0.00 85 1011.8
20260830120003 65 0 0.0 0.0 0.00 0.00 0.00 84 1011.9
20260830115003 65 0 0.0 0.0 0.00 0.00 0.00 84 1011.7
20260830114003 65 0 0.0 0.0 0.00 0.00 0.00 84 1011.7
20260830113003 66 0 0.0 0.0 0.00 0.00 0.00 84 1011.7
20260830112003 66 0 0.0 0.0 0.00 0.00 0.00 84 1011.6
20260830111003 66 0 0.0 0.0 0.00 0.00 0.00 83 1011.4
20260830110004 66 0 0.0 0.0 0.00 0.00 0.00 83 1011.5
20260830105003 66 0 0.0 0.0 0.00 0.00 0.00 83 1011.5
20260830104003 67 0 0.0 0.0 0.00 0.00 0.00 83 1011.5
20260830103003 67 0 0.0 2.0 0.00 0.00 0.00 83 1011.6
20260830102003 67 0 0.0 1.0 0.00 0.00 0.00 83 1011.5
20260830101003 67 0 0.0 0.0 0.00 0.00 0.00 82 1011.4
20260830100003 67 233 0.0 1.0 0.00 0.00 0.00 83 1011.4
20260830095003 68 233 1.0 2.0 0.00 0.00 0.00 82 1011.4
20260830094003 68 0 3.0 3.0 0.00 0.00 0.00 82 1011.4
20260830093003 68 0 3.0 3.0 0.00 0.00 0.00 82 1011.3
20260830091003 68 234 0.0 2.0 0.00 0.00 0.00 82 1011.4
20260830090004 68 234 1.0 3.0 0.00 0.00 0.00 82 1011.4
20260830085003 69 0 0.0 2.0 0.00 0.00 0.00 81 1011.4
20260830084003 69 0 0.0 2.0 0.00 0.00 0.00 82 1011.3
20260830083003 69 0 0.0 3.0 0.00 0.00 0.00 81 1011.3
20260830082024 69 0 0.0 0.0 0.00 0.00 0.00 81 1011.3
20260830081003 69 0 0.0 0.0 0.00 0.00 0.00 81 1011.3
20260830080003 70 0 0.0 0.0 0.00 0.00 0.00 81 1011.2
20260830075003 70 0 0.0 0.0 0.00 0.00 0.00 81 1011.3
20260830074004 70 233 0.0 1.0 0.00 0.00 0.00 81 1011.2
20260830073004 70 233 0.0 3.0 0.00 0.00 0.00 81 1011.3
20260830072004 70 0 4.0 4.0 0.00 0.00 0.00 81 1011.3
20260830071004 70 0 0.0 0.0 0.00 0.00 0.00 81 1011.1
20260830070026 70 0 0.0 0.0 0.00 0.00 0.00 80 1011.1
20260830065025 70 0 0.0 0.0 0.00 0.00 0.00 80 1011.1
20260830064004 70 0 0.0 0.0 0.00 0.00 0.00 80 1010.8
20260830063004 70 0 0.0 0.0 0.00 0.00 0.00 80 1011.0
20260830062004 70 0 0.0 0.0 0.00 0.00 0.00 80 1010.9
20260830061004 70 0 0.0 0.0 0.00 0.00 0.00 79 1010.9
20260830055004 70 0 0.0 0.0 0.00 0.00 0.00 79 1010.8
20260830054004 71 0 0.0 0.0 0.00 0.00 0.00 78 1010.8
20260830053004 71 241 0.0 1.0 0.00 0.00 0.00 78 1011.0
20260830052004 71 241 1.0 3.0 0.00 0.00 0.00 78 1011.2
20260830051004 71 241 1.0 3.0 0.00 0.00 0.00 77 1011.0
20260830050004 71 0 0.0 0.0 0.00 0.00 0.00 77 1011.1
20260830045004 72 243 1.0 2.0 0.00 0.00 0.00 76 1011.0